Tracking 18850 objects as of 22-Nov-2017
HD Live streaming from Space Station
objects crossing your sky now

FENGYUN 1C DEB

Track FENGYUN 1C DEB now!
10-day predictions


NORAD ID: 29848
Int'l Code: 1999-025ES
Perigee: 773.7 km
Apogee: 973.3 km
Inclination: 98.3 °
Period: 102.3 minutes
Semi major axis: 7244 km
RCS: 0.056 m2 (small)
Launch date: May 10, 1999
Source: People's Republic of China (PRC)
Launch site: Taiyaun Space Center, China (TSC)

Note: This is SATELLITE DEBRIS
aabbcc
Your satellite tracking list
Your tracking list is empty




NASA's NSSDC Master Catalog

Two Line Element Set (TLE):
1 29848U 99025ES  17326.07710206  .00000715  00000-0  40614-3 0  9999
2 29848  98.2752  19.7961 0137803 120.3295 301.2838 14.07956528556168
Source of the keplerian elements: AFSPC